Fargo, ND

5:47 AM CDT on October 22, 2019 (GMT -0500)
Hector International

Weather History for KFAR - August, 2019

Change the Weather History Date:

Thursday, August 1, 2019

  Actual Average Record
Temperature  
Mean Temperature 75 °F 71 °F  
Max Temperature 85 °F 83 °F 98 °F (1937)
Min Temperature 64 °F 59 °F 42 °F (1927)
Degree Days  
Heating Degree Days 0 0  
Month to date heating degree days 0 0  
Since 1 June heating degree days 64 89  
Since 1 July heating degree days 6 16  
Cooling Degree Days 10 7  
Month to date cooling degree days 10 7  
Year to date cooling degree days 388 347  
Since 1 June cooling degree days 378 316  
Growing Degree Days 24 (Base 50)    
Moisture  
Dew Point 66 °F    
Average Humidity 76    
Maximum Humidity 93    
Minimum Humidity 59    
Precipitation  
Precipitation 0.00 in 0.07 in 2.87 in (2011)
Month to date precipitation 0.00 0.07  
Year to date precipitation 16.34 13.54  
Snow  
Snow 0.00 in 0.00 in 0.00 in ()
Month to date snowfall 0.0 0.0  
Since 1 June snowfall 0.0 0.0  
Since 1 July snowfall 0.0 0.0  
Snow Depth 0.00 in    
Sea Level Pressure  
Sea Level Pressure 30.07 in    
Wind  
Wind Speed 7 mph (SSE)    
Max Wind Speed 15 mph    
Max Gust Speed 19 mph    
Visibility 10 miles    
Events      
T = Trace of Precipitation, MM = Missing Value Source: NWS Daily Summary

Daily Weather History Graph

Daily Weather History Graph

Search for Another Location

Airport or City:

Astronomy

Aug. 01, 2019 Rise Set
Actual Time 6:06 AM CDT 8:59 PM CDT
Civil Twilight 5:31 AM CDT 9:34 PM CDT
Nautical Twilight 4:45 AM CDT 10:20 PM CDT
Astronomical Twilight 3:51 AM CDT 11:13 PM CDT
Moon 6:31 AM CDT (8/1) 9:45 PM CDT (8/1)
Length of Visible Light 16h 03m
Length of Day
14h 53m
New Moon, 1% of the Moon is Illuminated
Aug 1
New Moon
Aug 7
First Quarter
Aug 15
Full
Aug 23
Last Quarter
Aug 30
New

Hourly Weather History & Observations

Time (CDT) Temp. Heat Index Dew Point Humidity Pressure Visibility Wind Dir Wind Speed Gust Speed Precip Events Conditions
12:53 AM 69.1 °F - 62.1 °F 78% 30.06 in 10.0 mi South 11.5 mph - N/A   Clear
1:53 AM 69.1 °F - 62.1 °F 78% 30.06 in 10.0 mi SSE 11.5 mph - N/A   Clear
2:53 AM 66.0 °F - 62.1 °F 87% 30.07 in 10.0 mi South 6.9 mph - N/A   Clear
3:53 AM 66.0 °F - 63.0 °F 90% 30.07 in 10.0 mi SSW 3.5 mph - N/A   Clear
4:53 AM 66.0 °F - 63.0 °F 90% 30.06 in 10.0 mi SSE 5.8 mph - N/A   Overcast
5:53 AM 64.9 °F - 63.0 °F 93% 30.05 in 10.0 mi SSE 8.1 mph - N/A   Clear
6:53 AM 64.9 °F - 63.0 °F 93% 30.06 in 10.0 mi South 9.2 mph - N/A   Clear
7:53 AM 68.0 °F - 64.0 °F 87% 30.08 in 10.0 mi SSE 6.9 mph - N/A   Partly Cloudy
8:53 AM 71.1 °F - 64.9 °F 81% 30.09 in 10.0 mi SSE 4.6 mph - N/A   Clear
9:53 AM 73.9 °F - 66.9 °F 79% 30.11 in 10.0 mi SE 5.8 mph - N/A   Clear
10:53 AM 77.0 °F - 66.9 °F 71% 30.11 in 10.0 mi South 5.8 mph - N/A   Mostly Cloudy
11:04 AM 77.0 °F - 66.9 °F 71% 30.11 in 10.0 mi Variable 5.8 mph - N/A   Scattered Clouds
11:53 AM 81.0 °F 83.3 °F 66.9 °F 62% 30.09 in 10.0 mi SE 6.9 mph - N/A   Partly Cloudy
12:53 PM 82.9 °F 85.8 °F 68.0 °F 60% 30.08 in 10.0 mi SSE 10.4 mph 17.3 mph N/A   Clear
1:53 PM 84.0 °F 87.8 °F 69.1 °F 61% 30.08 in 10.0 mi South 8.1 mph - N/A   Partly Cloudy
2:53 PM 84.0 °F 87.0 °F 68.0 °F 58% 30.08 in 10.0 mi South 12.7 mph - N/A   Mostly Cloudy
3:53 PM 84.0 °F 87.8 °F 69.1 °F 61% 30.07 in 10.0 mi South 5.8 mph - N/A   Mostly Cloudy
4:53 PM 84.0 °F 87.8 °F 69.1 °F 61% 30.06 in 10.0 mi SE 3.5 mph - N/A   Overcast
5:53 PM 84.0 °F 87.8 °F 69.1 °F 61% 30.05 in 10.0 mi SSW 4.6 mph - N/A   Mostly Cloudy
6:53 PM 82.9 °F 87.0 °F 70.0 °F 65% 30.05 in 10.0 mi SSE 5.8 mph - N/A   Mostly Cloudy
7:53 PM 82.0 °F 84.9 °F 68.0 °F 62% 30.05 in 10.0 mi South 10.4 mph - N/A   Overcast
8:53 PM 80.1 °F 82.7 °F 68.0 °F 67% 30.05 in 10.0 mi South 8.1 mph - N/A   Partly Cloudy
9:53 PM 79.0 °F - 66.9 °F 66% 30.06 in 10.0 mi South 6.9 mph - N/A   Mostly Cloudy
10:53 PM 77.0 °F - 68.0 °F 74% 30.06 in 10.0 mi SSE 5.8 mph - N/A   Overcast
11:53 PM 75.9 °F - 68.0 °F 76% 30.06 in 10.0 mi SSE 6.9 mph - N/A   Overcast